Location: Bouchavesnes-Bergen
(49.9859°N, 2.9203°E)
Time: 09:50:09
(UTC+00:00)

SL-16 R/B - Pass Details

Date: 09 March 2021
Orbit: 986 x 1006 km, 99.5° (Epoch: 13 April)

Event Time Altitude Azimuth Distance (km) Brightness Sun altitude
Exits shadow 01:47:18 19° 336° (NNW) 2,151 4.5 -39.1°
Drops below altitude 10° 01:48:58 10° 340° (NNW) 2,764 5.2 -38.9°
Sets 01:51:29 0° 343° (NNW) 3,719 5.9 -38.7°
